Location: Recife
(8.0585°S, 34.8848°W)
Time: 11:00:33
(UTC-03:00)

Explorer 11/Cluster Stage 4 - Pass Details

Date: 15 April 2026
Orbit: 463 x 1174 km, 28.8° (Epoch: 20 May)

Event Time Altitude Azimuth Distance (km) Brightness Sun altitude
Rises 06:53:50 0° 255° (WSW) 3,012 9.0 21.5°
Reaches altitude 10° 06:56:10 10° 263° (W) 2,202 8.4 22.0°
Maximum altitude 07:01:04 40° 332° (NNW) 1,203 7.7 23.2°
Drops below altitude 10° 07:07:00 10° 39° (NE) 2,669 10.3 24.6°
Sets 07:10:05 0° 46° (NE) 3,730 11.0 25.4°
